Regional Weather Roundup
Issued by NWS Newport/Morehead, NC

Current Version | Previous Version | Graphics & Text | Print | Product List | Glossary Off
Versions: 1 2 3 4 5 6 7 8 9 10 11 12 13 14 15 16 17 18 19 20 21 22 23 24 25 26 27 28 29 30 31 32 33 34 35 36 37 38 39 40 41 42 43 44 45 46 47 48 49 50

000
ASUS42 KMHX 202014
RWRMHX
WEATHER ROUNDUP FOR EASTERN NORTH CAROLINA
NATIONAL WEATHER SERVICE NEWPORT/MOREHEAD CITY NC
300 PM EST TUE FEB 20 2018

NOTE: "FAIR" INDICATES FEW OR NO CLOUDS BELOW 12,000 FEET
WITH NO SIGNIFICANT WEATHER AND/OR OBSTRUCTIONS TO VISIBILITY

NCZ015>017-031-032-045>047-102-103-202100-
NORTH COAST

CITY           SKY/WX    TMP DP  RH WIND       PRES   REMARKS
EDENTON        CLOUDY    77  67  69 SW5       30.41S
ELIZABETH CITY PTSUNNY   77  67  71 S9        30.41F
KITTY HAWK     FAIR      70  70 100 S5        30.42F
MANTEO         PTSUNNY   69  64  86 S16G22    30.44S

$$

NCZ045>047-081-094-103-104-202100-
CENTRAL COAST

CITY           SKY/WX    TMP DP  RH WIND       PRES   REMARKS
FRISCO         CLOUDY    72  65  78 S10       30.45F

$$

NCZ095-097-098-100-101-202100-
SOUTHERN COAST

CITY           SKY/WX    TMP DP  RH WIND       PRES   REMARKS
BEAUFORT       FAIR      75  67  76 S9        30.45S
CEDAR ISLAND   NOT AVBL
JACKSONVILLE   CLOUDY    77  66  68 S13       30.42F
PINEY ISLAND   NOT AVBL
WILMINGTON     FAIR      75  65  70 S10G18    30.42F


$$

NCZ011>013-027>030-043-044-078>080-089-090>093-098-202100-
COASTAL PLAIN

CITY           SKY/WX    TMP DP  RH WIND       PRES   REMARKS
AHOSKIE        FAIR      72  65  81 CALM      30.40F
CLINTON        FAIR      80  62  54 S9        30.39F
ELIZABETHTOWN  NOT AVBL
GOLDSBORO      PTSUNNY   80  60  49 S10       30.37F
GREENVILLE       N/A    N/A N/A N/A MISG        N/A
HAVELOCK       MOSUNNY   79  68  69 SW12      30.44F
KENANSVILLE    FAIR      81  59  47 S7        30.40F
KINSTON        PTSUNNY   79  61  53 S14       30.40F
NEW BERN       FAIR      78  64  61 SW12G21   30.42F
RICHLANDS      FAIR      78  65  63 S16G22    30.41F
ROCKY MOUNT    PTSUNNY   75  63  66 S3        30.40F
WASHINGTON     CLOUDY    79  61  54 S8        30.40S
WHITEVILLE     FAIR      78  62  57 S13       30.40S

$$

AMZ130-135-150-152-154-156-158-170-250-252-270-ANZ085-086-088-633-658-670-202100-
MARINE OBSERVATIONS

STATION/POSITION TIME  TEMP    WIND        PRES    WAVE   SWELL
                       AIR SEA DIR/SP/G            HT/PER HT/PER
                 (UTC) (F)     (DEG/KT/KT) (MB)    (FT/S) (FT/S)
CHESAPEAKE LIGHT NOT AVBL
64 E VA BEACH    1950   56 51  200/ 12/ 12 1031.2    4/11   3/11
DUCK             1948   67 45  170/  8/ 10 1029.8
2 E DUCK         2000      46                N/A     3/11   2/11
OREGON INLET     1936   65 51  170/ 10/ 12 1030.9
13E OREGON INLT  1948      47                N/A     4/12   5/12
HATTERAS CG      1948   68 57  170/ 11/ 13 1031.0
DIAMOND BUOY     1950   73     170/ 16/ 17   N/A     4/12   3/12
CAPE LOOKOUT     2000          160/  4/  6 1031.5
BEAUFORT LAB     1948   69 55  160/  7/  9 1031.3
30 SE NEW RVR IN 1908   72 70  180/  6/  8 1031.2
30 SE NEW RVR IN 2000      71                N/A     3/ 6   2/13
27 SE WRIGHTSVLE 1908   71 69  160/  8/ 12 1031.1
5 SE WRIGHTSVLE  1908   63 55  160/  4/  8 1030.6
225 S CAPE HAT   1950   72 75  110/ 12/ 14 1031.5    4/ 6   3/ 6
41 SE CHARLESTON 2000   72 69  150/  6/  8 1029.4

$$




USA.gov is the U.S. government's official web portal to all federal, state and local government web resources and services.